Regional Weather Roundup
Issued by NWS

Home | Current Version | Previous Version | Graphics & Text | Print | Product List | Glossary On
Versions: 1 2 3 4 5 6 7 8 9 10 11 12 13 14 15 16 17 18 19 20 21 22 23 24 25 26 27 28 29 30 31 32 33 34 35 36 37 38 39 40 41 42 43 44 45 46 47 48 49 50
000
ASUS43 KFSD 251010
RWRSD

WEATHER ROUNDUP FOR SOUTH DAKOTA
NATIONAL WEATHER SERVICE SIOUX FALLS SD
500 AM CDT SAT APR 25 2015

NOTE: "FAIR" INDICATES FEW OR NO CLOUDS BELOW 12,000 FEET WITH NO
SIGNIFICANT WEATHER AND/OR OBSTRUCTIONS TO VISIBILITY.


SDZ001>005-009-010-012>017-251100-
NORTHWEST AND NORTH CENTRAL SOUTH DAKOTA

CITY           SKY/WX    TMP DP  RH WIND       PRES   REMARKS
BUFFALO          N/A     42  39  89 SE7       29.62R
FAITH            N/A     43  42  97 NE12      29.68R
MOBRIDGE       CLOUDY    46  43  89 E12       29.68R FOG
$$

SDZ012>016-024>037-041>051-057-063-072>074-251100-
SOUTHWEST AND SOUTH CENTRAL SOUTH DAKOTA

CITY           SKY/WX    TMP DP  RH WIND       PRES   REMARKS
RAPID CTY ARPT PTCLDY    42  37  82 N12       29.65S
PIERRE         LGT RAIN  48  46  93 E14       29.63R FOG
CUSTER         CLEAR     33  30  88 NW3       29.70S
ELLSWORTH AFB  PTCLDY    46  39  76 NW7       29.65S
PHILIP         CLOUDY    47  44  90 NE13      29.64R
PINE RIDGE     MOCLDY    42  41  96 SW7       29.65R
SPEARFISH      FAIR      37  32  81 S3        29.67S
WINNER         FAIR      49  45  86 E10       29.59R
$$

SDZ004>011-016>023-039-040-251100-
NORTHEAST SOUTH DAKOTA

CITY           SKY/WX    TMP DP  RH WIND       PRES   REMARKS
ABERDEEN       CLOUDY    45  42  89 E10       29.71R
WATERTOWN      CLOUDY    42  41  96 E13G23    29.67R FOG
BROOKINGS      CLOUDY    45  43  93 E15       29.66S
SISSETON         N/A     43  42  97 SE13      29.73R
$$

SDZ017-020-022-023-036>040-048>070-251100-
SOUTHEAST SOUTH DAKOTA

CITY           SKY/WX    TMP DP  RH WIND       PRES   REMARKS
SIOUX FALLS    CLOUDY    46  43  89 E14       29.61F
HURON          CLOUDY    48  46  93 NE13      29.63R
CHAMBERLAIN    CLOUDY    50  48  95 E10       29.61R FOG
MITCHELL       CLOUDY    51  49  92 SE9       29.60R
YANKTON        CLOUDY    48  45  87 NE18      29.58R
$$

ABBREVIATIONS USED IN REMARKS
   TC - TEMPERATURE IN CELSIUS
  WCI - WIND CHILL INDEX
   HX - HEAT INDEX
  VSB - VISIBILITY



USA.gov is the U.S. government's official web portal to all federal, state and local government web resources and services.